This demonstration page uses our WeatherBlox Daily Observations layout. Learn more.

Left ArrowRight Arrow

39.51506, -84.39828

Hourly Observations for March 20, 2018

Temp ( °F °C ) Dew Point ( °F °C ) Humidity (%) Winds ( mph kmh ) Pressure ( in mb ) Visibility ( mi km ) Precip ( " mm )
12:15 am 00:15 Cloudy 39 3.9 23 -5.2 52 52 NE 18 30 29.74 1007 10 16.0934 N/A
12:35 am 00:35 Cloudy with Light Rain 38 3.1 23 -5 56 56 NE 16 26 29.71 1006 10 16.0934 N/A
12:55 am 00:55 Cloudy with Light Rain 38 3.1 22 -5.3 54 54 NE 16 26 29.71 1006 10 16.0934 N/A
1:15 am 01:15 Cloudy with Light Rain 37 2.7 22 -5.4 56 56 NNE 17 28 29.71 1006 10 16.0934 N/A
1:35 am 01:35 Cloudy 37 2.8 21 -6.3 52 52 NNE 16 26 29.71 1006 10 16.0934 N/A
1:55 am 01:55 Cloudy with Light Rain 36 2 21 -6.2 55 55 NNE 16 26 29.71 1006 10 16.0934 N/A
2:15 am 02:15 Cloudy with Light Rain 35 1.5 21 -6 58 58 NNE 18 30 29.71 1006 10 16.0934 N/A
2:35 am 02:35 Cloudy 35 1.5 21 -6.1 57 57 NNE 17 28 29.71 1006 10 16.0934 N/A
2:55 am 02:55 Cloudy with Light Rain 35 1.6 21 -6 57 57 NNE 18 30 29.68 1005 10 16.0934 N/A
3:15 am 03:15 Cloudy 34 1.3 22 -5.7 60 60 NNE 15 24 29.68 1005 10 16.0934 N/A
3:35 am 03:35 Cloudy 35 1.5 22 -5.6 60 60 NNE 16 26 29.68 1005 10 16.0934 N/A
3:55 am 03:55 Cloudy 35 1.6 22 -5.7 59 59 NNE 18 30 29.68 1005 10 16.0934 N/A
4:15 am 04:15 Cloudy 35 1.6 22 -5.5 60 60 NNE 14 22 29.68 1005 10 16.0934 N/A
4:35 am 04:35 Cloudy 35 1.7 22 -5.7 58 58 NNE 17 28 29.68 1005 10 16.0934 N/A
4:55 am 04:55 Cloudy 35 1.7 22 -5.8 58 58 NNE 13 20 29.68 1005 10 16.0934 N/A
5:15 am 05:15 Cloudy 35 1.6 22 -5.7 59 59 N 13 20 29.68 1005 10 16.0934 N/A
5:35 am 05:35 Cloudy 35 1.4 22 -5.5 60 60 NNE 15 24 29.68 1005 10 16.0934 N/A
5:55 am 05:55 Cloudy 34 1.2 22 -5.5 61 61 N 13 20 29.68 1005 10 16.0934 N/A
6:15 am 06:15 Cloudy with Light Rain 34 1 22 -5.4 63 63 NNE 14 22 29.68 1005 10 16.0934 N/A
6:35 am 06:35 Cloudy 34 1 22 -5.6 62 62 NNE 15 24 29.68 1005 10 16.0934 N/A
6:55 am 06:55 Cloudy 34 1 22 -5.5 62 62 NNE 13 20 29.68 1005 10 16.0934 N/A
7:15 am 07:15 Cloudy 34 1 22 -5.3 63 63 NNE 16 26 29.68 1005 10 16.0934 N/A
7:35 am 07:35 Cloudy 34 0.9 23 -4.9 66 66 NNE 12 19 29.68 1005 10 16.0934 N/A
7:55 am 07:55 Cloudy 33 0.8 23 -4.8 67 67 NNE 9 15 29.71 1006 10 16.0934 N/A
8:15 am 08:15 Cloudy 33 0.7 23 -4.9 66 66 NNE 13 20 29.74 1007 10 16.0934 N/A
8:35 am 08:35 Cloudy 34 0.9 23 -4.9 66 66 NNE 14 22 29.71 1006 10 16.0934 N/A
8:55 am 08:55 Cloudy 34 1 23 -4.9 65 65 N 15 24 29.71 1006 10 16.0934 N/A
9:15 am 09:15 Cloudy 34 1.1 23 -4.9 65 65 NNE 16 26 29.71 1006 10 16.0934 N/A
9:35 am 09:35 Cloudy 34 1.2 24 -4.7 65 65 NNE 16 26 29.68 1005 10 16.0934 N/A
9:55 am 09:55 Cloudy 34 1.2 25 -4 69 69 NNE 12 19 29.71 1006 10 16.0934 N/A
10:15 am 10:15 Cloudy 34 1.2 25 -4.1 68 68 NNE 15 24 29.71 1006 10 16.0934 N/A
10:35 am 10:35 Cloudy 34 1.3 25 -4 68 68 NNE 13 20 29.71 1006 10 16.0934 N/A
10:55 am 10:55 Cloudy with Light Rain 35 1.4 25 -3.8 69 69 NNE 14 22 29.71 1006 10 16.0934 N/A
11:15 am 11:15 Cloudy 35 1.9 24 -4.2 64 64 NNE 10 17 29.71 1006 10 16.0934 N/A
11:35 am 11:35 Cloudy 37 2.5 25 -3.9 63 63 NNE 13 20 29.71 1006 10 16.0934 N/A
11:55 am 11:55 Cloudy 37 2.9 24 -4.2 60 60 NNE 12 19 29.71 1006 10 16.0934 N/A
12:15 pm 12:15 Cloudy 37 2.9 24 -4.3 60 60 NNE 14 22 29.71 1006 10 16.0934 N/A
12:35 pm 12:35 Cloudy 38 3.2 25 -3.7 61 61 NE 15 24 29.71 1006 10 16.0934 N/A
12:55 pm 12:55 Cloudy 38 3.4 26 -3.4 61 61 NNE 17 28 29.71 1006 10 16.0934 N/A
1:15 pm 13:15 Cloudy 37 2.9 28 -2.4 68 68 NE 15 24 29.71 1006 10 16.0934 N/A
1:35 pm 13:35 Cloudy with Haze 37 2.5 29 -1.5 75 75 NNE 15 24 29.71 1006 7 11.26538 N/A
1:55 pm 13:55 Cloudy with Haze 36 2.2 31 -0.4 83 83 NE 13 20 29.71 1006 4 6.43736 N/A
2:15 pm 14:15 Cloudy 37 2.8 31 -0.5 79 79 NNE 9 15 29.68 1005 10 16.0934 N/A
2:35 pm 14:35 Cloudy 38 3.5 31 -0.6 75 75 NNE 8 13 29.68 1005 10 16.0934 N/A
2:55 pm 14:55 Cloudy 40 4.2 30 -1 69 69 NNE 6 9 29.65 1004 10 16.0934 N/A
3:15 pm 15:15 Cloudy 41 5.2 29 -1.4 63 63 N 7 11 29.65 1004 10 16.0934 N/A
3:35 pm 15:35 Cloudy 43 6.1 29 -1.9 57 57 NE 8 13 29.65 1004 10 16.0934 N/A
3:55 pm 15:55 Cloudy 44 6.5 27 -3 51 51 NE 14 22 29.65 1004 10 16.0934 N/A
4:15 pm 16:15 Cloudy 45 7.3 27 -2.6 50 50 NE 18 30 29.65 1004 10 16.0934 N/A
4:35 pm 16:35 Cloudy 44 6.6 28 -2.2 54 54 NE 16 26 29.65 1004 10 16.0934 N/A
4:55 pm 16:55 Cloudy 44 6.4 27 -3 51 51 NE 15 24 29.65 1004 10 16.0934 N/A
5:15 pm 17:15 Cloudy 44 6.7 27 -2.7 51 51 NE 14 22 29.65 1004 10 16.0934 N/A
5:35 pm 17:35 Cloudy 44 6.7 28 -2.4 53 53 NNE 16 26 29.65 1004 10 16.0934 N/A
5:55 pm 17:55 Cloudy 43 6.1 30 -1.2 60 60 ENE 14 22 29.65 1004 10 16.0934 N/A
6:15 pm 18:15 Cloudy 42 5.7 31 -0.6 64 64 NNE 13 20 29.65 1004 10 16.0934 N/A
6:35 pm 18:35 Cloudy with Light Rain 40 4.3 34 0.9 79 79 E 15 24 29.68 1005 10 16.0934 N/A
6:55 pm 18:55 Cloudy with Light Rain 38 3.2 33 0.4 82 82 ENE 14 22 29.68 1005 10 16.0934 N/A
7:15 pm 19:15 Cloudy with Drizzle 37 3 33 0.5 84 84 ENE 13 20 29.68 1005 10 16.0934 N/A
7:35 pm 19:35 Cloudy with Drizzle 37 2.8 33 0.6 86 86 NE 8 13 29.68 1005 10 16.0934 N/A
7:55 pm 19:55 Cloudy with Drizzle 37 2.8 33 0.7 86 86 NNE 8 13 29.68 1005 7 11.26538 N/A
8:15 pm 20:15 Cloudy with Light Rain 36 2.4 34 1 91 91 NNE 12 19 29.68 1005 5 8.0467 N/A
8:35 pm 20:35 Cloudy with Light Rain 36 2.4 33 0.6 88 88 N 12 19 29.68 1005 7 11.26538 N/A
8:55 pm 20:55 Cloudy with Light Rain 36 2 30 -1 81 81 N 16 26 29.68 1005 10 16.0934 N/A
9:15 pm 21:15 Cloudy with Light Rain 35 1.4 31 -0.7 86 86 N 10 17 29.71 1006 10 16.0934 N/A
9:35 pm 21:35 Cloudy with Light Snow 34 0.9 30 -0.9 88 88 N 13 20 29.71 1006 7 11.26538 N/A
9:55 pm 21:55 Cloudy with Light Snow 33 0.5 30 -1.1 89 89 N 13 20 29.74 1007 4 6.43736 N/A
10:15 pm 22:15 Cloudy with Light Snow 32 0.1 30 -1 92 92 N 10 17 29.77 1008 1.5 2.41401 N/A
10:30 pm 22:30 Cloudy with Light Snow 32 -0.2 30 -1 94 94 N 10 17 29.77 1008 1.5 2.41401 N/A
10:55 pm 22:55 Cloudy with Light Snow 31 -0.4 30 -1.3 94 94 N 14 22 29.74 1007 2 3.21868 N/A
11:15 pm 23:15 Cloudy with Light Snow 31 -0.5 29 -1.5 93 93 N 13 20 29.74 1007 1.75 2.816345 N/A
11:35 pm 23:35 Cloudy with Light Snow 31 -0.7 29 -1.9 92 92 N 12 19 29.74 1007 2.5 4.02335 N/A
11:55 pm 23:55 Cloudy with Light Snow 30 -0.9 28 -2.2 91 91 N 13 20 29.74 1007 3 4.82802 N/A

Powered by AerisWeather